Location: Unspecified
(41.5000°N, 0.0000°E)
Time: 21:51:26
(UTC+00:00)

Tiros 1 despin weight - Visible Passes

Search period start: 17 June 2019 00:00
Search period end: 27 June 2019 00:00
Orbit: 595 x 642 km, 48.2° (Epoch: 17 June)

Date Brightness Start Highest point End Pass type
(mag) Time Alt. Az. Time Alt. Az. Time Alt. Az.
17 Jun ? 00:10:25 14° E 00:10:25 14° E 00:11:15 10° E visible
17 Jun ? 01:47:26 42° W 01:48:51 73° NNW 01:53:16 10° ENE visible
17 Jun ? 03:26:47 10° WNW 03:30:52 35° N 03:34:57 10° ENE visible
18 Jun ? 00:25:47 30° E 00:25:47 30° E 00:28:16 10° ENE visible
18 Jun ? 02:02:49 20° W 02:05:36 49° NNW 02:09:54 10° ENE visible
18 Jun ? 03:43:44 10° WNW 03:47:46 34° N 03:51:50 10° ENE visible
19 Jun ? 00:41:06 69° ENE 00:41:06 69° ENE 00:45:00 10° ENE visible
19 Jun ? 02:18:18 10° W 02:22:27 38° N 02:26:36 10° ENE visible
19 Jun ? 23:19:18 13° E 23:19:18 13° E 23:19:51 10° ENE visible
20 Jun ? 00:56:19 48° WNW 00:57:16 61° NNW 01:01:39 10° ENE visible
20 Jun ? 02:35:18 10° WNW 02:39:21 34° N 02:43:24 10° ENE visible
20 Jun ? 23:34:25 29° ENE 23:34:25 29° ENE 23:36:43 10° ENE visible
21 Jun ? 01:11:24 20° WNW 01:14:03 43° NNW 01:18:17 10° ENE visible
21 Jun ? 02:52:12 10° WNW 02:56:17 35° N 03:00:21 10° ENE visible
21 Jun ? 23:49:17 73° NNE 23:49:17 73° NNE 23:53:24 10° ENE visible
22 Jun ? 01:26:50 10° WNW 01:30:56 36° N 01:35:02 10° ENE visible
22 Jun ? 03:08:58 10° WNW 03:13:10 41° NNE 03:17:22 10° E visible
22 Jun ? 22:26:49 20° E 22:26:49 20° E 22:28:23 10° ENE visible
23 Jun ? 00:03:46 29° W 00:05:42 52° NNW 00:10:02 10° ENE visible
23 Jun ? 01:43:48 10° WNW 01:47:52 34° N 01:51:53 10° ENE visible
23 Jun ? 03:25:38 10° WNW 03:29:59 55° NNE 03:34:20 10° E visible
23 Jun ? 22:40:02 63° SW 22:40:42 79° SSE 22:45:08 10° ENE visible
24 Jun ? 00:18:20 10° W 00:22:32 39° NNW 00:26:42 10° ENE visible
24 Jun ? 02:00:39 10° WNW 02:04:46 36° N 02:08:53 10° ENE visible
24 Jun ? 03:42:16 10° WNW 03:46:42 86° NNE 03:51:08 10° ESE visible
24 Jun ? 21:12:03 10° SSW 21:16:00 31° SE 21:19:56 10° ENE visible
24 Jun ? 22:52:55 10° WSW 22:57:22 65° NNW 23:01:47 10° ENE visible
25 Jun ? 00:35:21 10° WNW 00:39:26 34° N 00:43:29 10° ENE visible
25 Jun ? 02:17:22 10° WNW 02:21:38 46° NNE 02:25:54 10° E visible
25 Jun ? 21:28:04 10° SW 21:32:28 57° SE 21:36:51 10° ENE visible
25 Jun ? 23:09:50 10° W 23:14:09 45° NNW 23:18:25 10° ENE visible
26 Jun ? 00:52:16 10° WNW 00:56:21 34° N 01:00:25 10° ENE visible
26 Jun ? 02:34:00 10° WNW 02:38:24 66° NNE 02:42:48 10° ESE visible
26 Jun ? 21:44:33 10° WSW 21:49:03 84° NNW 21:53:32 10° ENE visible
26 Jun ? 23:26:51 10° WNW 23:31:01 36° N 23:35:08 10° ENE visible
